DLH6UX EDDF-EDDW

Flight info

Callsign DLH6UX
Flight time N/A
Altitude 22000
Route MARUN3W/25C MARUN Y153 WRB N850 NIE Z88 VERED VERED3P
Aircraft A320/M-SDE2E3FGIJ1LORWXYZ/HB1

Departure

Time 2026-04-15 16:17
Airport Frankfurt Main Airport (EDDF)

Arrival

Time N/A
Airport Bremen Airport (EDDW)
Time Latitude Longitude Altitude Speed Heading
2026-04-15 15:34 50.04431 8.56331 361 ft 0 kts 170°
2026-04-15 15:36 50.04416 8.56277 361 ft 0 kts 165°
2026-04-15 16:07 50.04417 8.56276 381 ft 1 kts 165°
2026-04-15 16:07 50.04441 8.56266 357 ft 4 kts 165°
2026-04-15 16:07 50.04485 8.56260 360 ft 4 kts 241°
2026-04-15 16:08 50.04491 8.56279 358 ft 2 kts 249°
2026-04-15 16:08 50.04482 8.56242 356 ft 4 kts 249°
2026-04-15 16:08 50.04473 8.56203 355 ft 4 kts 249°
2026-04-15 16:08 50.04463 8.56163 356 ft 4 kts 249°
2026-04-15 16:09 50.04454 8.56124 357 ft 4 kts 250°
2026-04-15 16:09 50.04451 8.56111 360 ft 0 kts 250°
2026-04-15 16:11 50.04450 8.56109 360 ft 2 kts 249°
2026-04-15 16:12 50.04417 8.56036 355 ft 15 kts 208°
2026-04-15 16:12 50.04305 8.56081 357 ft 17 kts 152°
2026-04-15 16:12 50.04267 8.56219 355 ft 14 kts 147°
2026-04-15 16:12 50.04182 8.56274 358 ft 13 kts 158°
2026-04-15 16:13 50.04148 8.56374 354 ft 11 kts 76°
2026-04-15 16:13 50.04187 8.56518 358 ft 21 kts 70°
2026-04-15 16:13 50.04242 8.56762 358 ft 25 kts 70°
2026-04-15 16:13 50.04305 8.57025 357 ft 27 kts 70°
2026-04-15 16:14 50.04370 8.57297 359 ft 26 kts 70°
2026-04-15 16:14 50.04420 8.57500 356 ft 11 kts 72°
2026-04-15 16:14 50.04417 8.57611 356 ft 10 kts 116°
2026-04-15 16:14 50.04368 8.57666 356 ft 8 kts 160°
2026-04-15 16:15 50.04315 8.57692 357 ft 8 kts 163°
2026-04-15 16:15 50.04269 8.57667 357 ft 7 kts 229°
2026-04-15 16:15 50.04252 8.57606 356 ft 5 kts 249°
2026-04-15 16:15 50.04245 8.57578 357 ft 1 kts 250°
2026-04-15 16:16 50.04244 8.57574 357 ft 0 kts 250°
2026-04-15 16:16 50.04244 8.57572 357 ft 2 kts 250°
2026-04-15 16:16 50.04168 8.57254 359 ft 72 kts 249°
2026-04-15 16:16 50.03907 8.56165 355 ft 140 kts 249°
2026-04-15 16:17 50.03542 8.54592 770 ft 158 kts 249°
2026-04-15 16:17 50.03159 8.52976 1565 ft 160 kts 249°
2026-04-15 16:17 50.02750 8.51278 2151 ft 178 kts 248°
2026-04-15 16:17 50.02063 8.49555 2579 ft 199 kts 225°
2026-04-15 16:18 50.00896 8.48328 3203 ft 208 kts 200°
2026-04-15 16:18 49.99481 8.47851 4093 ft 209 kts 187°
2026-04-15 16:18 49.98035 8.47531 5028 ft 211 kts 187°
2026-04-15 16:18 49.96575 8.47208 5939 ft 213 kts 188°
2026-04-15 16:19 49.95103 8.46644 6638 ft 228 kts 196°
2026-04-15 16:19 49.93508 8.45911 7202 ft 247 kts 197°
2026-04-15 16:19 49.91940 8.44776 8077 ft 252 kts 220°
2026-04-15 16:19 49.90883 8.42612 9022 ft 256 kts 249°
2026-04-15 16:20 49.90639 8.39885 10014 ft 261 kts 277°
2026-04-15 16:20 49.91312 8.37272 10897 ft 267 kts 306°
2026-04-15 16:20 49.92768 8.35478 11781 ft 273 kts 333°
2026-04-15 16:20 49.94567 8.34260 12314 ft 294 kts 335°
2026-04-15 16:21 49.96546 8.32979 12652 ft 318 kts 336°
2026-04-15 16:21 49.98637 8.31645 13200 ft 332 kts 336°
2026-04-15 16:21 50.00796 8.30267 14011 ft 338 kts 336°
2026-04-15 16:21 50.03055 8.29168 14761 ft 344 kts 347°
2026-04-15 16:22 50.05453 8.28851 15520 ft 350 kts
2026-04-15 16:22 50.07880 8.29385 16264 ft 356 kts 13°
2026-04-15 16:22 50.10250 8.30597 17001 ft 360 kts 17°
2026-04-15 16:22 50.12633 8.31858 17753 ft 364 kts 17°
2026-04-15 16:23 50.15046 8.33124 18496 ft 368 kts 17°
2026-04-15 16:23 50.17482 8.34397 19142 ft 371 kts 17°
2026-04-15 16:23 50.19940 8.35681 19785 ft 374 kts 17°
2026-04-15 16:23 50.22387 8.36958 20444 ft 377 kts 17°
2026-04-15 16:24 50.24886 8.38270 21098 ft 380 kts 17°
2026-04-15 16:24 50.27402 8.39594 21746 ft 383 kts 17°
2026-04-15 16:24 50.29942 8.40938 22100 ft 386 kts 17°
2026-04-15 16:24 50.32462 8.42295 22184 ft 377 kts 17°
2026-04-15 16:25 50.34882 8.43623 22193 ft 361 kts 17°
2026-04-15 16:25 50.37240 8.44928 22195 ft 354 kts 17°
2026-04-15 16:25 50.39542 8.46198 22198 ft 352 kts 17°
2026-04-15 16:25 50.41854 8.47464 22195 ft 352 kts 17°
2026-04-15 16:26 50.44166 8.48724 22199 ft 352 kts 17°
2026-04-15 16:26 50.46477 8.49984 22194 ft 352 kts 17°
2026-04-15 16:26 50.48792 8.51218 22195 ft 351 kts 15°
2026-04-15 16:26 50.51127 8.52370 22189 ft 351 kts 14°
2026-04-15 16:27 50.53463 8.53470 22194 ft 351 kts 14°
2026-04-15 16:27 50.55802 8.54553 22192 ft 351 kts 14°
2026-04-15 16:27 50.58142 8.55644 22191 ft 351 kts 14°
2026-04-15 16:27 50.60480 8.56747 22192 ft 351 kts 14°
2026-04-15 16:28 50.62816 8.57864 22198 ft 351 kts 14°
2026-04-15 16:28 50.65150 8.58989 22198 ft 351 kts 14°
2026-04-15 16:28 50.67482 8.60117 22199 ft 351 kts 15°
2026-04-15 16:28 50.69817 8.61248 22198 ft 351 kts 14°
2026-04-15 16:29 50.72149 8.62371 22200 ft 351 kts 14°
2026-04-15 16:29 50.74484 8.63494 22201 ft 351 kts 14°
2026-04-15 16:29 50.76817 8.64619 22201 ft 351 kts 14°
2026-04-15 16:29 50.79148 8.65750 22200 ft 350 kts 14°
2026-04-15 16:30 50.81477 8.66887 22199 ft 350 kts 15°
2026-04-15 16:30 50.83789 8.68112 22194 ft 351 kts 18°
2026-04-15 16:30 50.86064 8.69485 22195 ft 351 kts 19°
2026-04-15 16:30 50.88334 8.70947 22192 ft 351 kts 20°
2026-04-15 16:31 50.90562 8.72415 22194 ft 351 kts 20°
2026-04-15 16:31 50.92819 8.73902 22193 ft 351 kts 20°
2026-04-15 16:31 50.95077 8.75373 22191 ft 351 kts 20°
2026-04-15 16:31 50.97372 8.76851 22189 ft 351 kts 19°
2026-04-15 16:32 50.99609 8.78280 22191 ft 351 kts 19°
2026-04-15 16:32 51.01875 8.79725 22188 ft 351 kts 19°
2026-04-15 16:32 51.04170 8.81188 22187 ft 351 kts 19°
2026-04-15 16:32 51.06411 8.82614 22191 ft 351 kts 19°
2026-04-15 16:33 51.08679 8.84056 22190 ft 351 kts 19°
2026-04-15 16:33 51.10950 8.85503 22188 ft 351 kts 19°
2026-04-15 16:33 51.13218 8.86953 22186 ft 351 kts 19°
2026-04-15 16:33 51.15484 8.88404 22187 ft 351 kts 19°
2026-04-15 16:34 51.17755 8.89857 22187 ft 352 kts 19°
2026-04-15 16:34 51.20026 8.91306 22186 ft 352 kts 19°
2026-04-15 16:34 51.22294 8.92755 22186 ft 351 kts 19°
2026-04-15 16:34 51.24562 8.94214 22186 ft 352 kts 19°
2026-04-15 16:35 51.26829 8.95681 22190 ft 352 kts 19°
2026-04-15 16:35 51.29094 8.97146 22187 ft 352 kts 19°
2026-04-15 16:35 51.31366 8.98616 22187 ft 352 kts 19°
2026-04-15 16:35 51.33631 9.00081 22184 ft 352 kts 19°
2026-04-15 16:36 51.35897 9.01550 22185 ft 352 kts 19°
2026-04-15 16:36 51.38161 9.03020 22183 ft 351 kts 19°
2026-04-15 16:36 51.40430 9.04493 22181 ft 351 kts 19°
2026-04-15 16:36 51.42693 9.05963 22184 ft 352 kts 19°
2026-04-15 16:37 51.44961 9.07433 22184 ft 351 kts 19°
2026-04-15 16:37 51.47197 9.08883 22183 ft 351 kts 19°
2026-04-15 16:37 51.49468 9.10350 22180 ft 351 kts 17°
2026-04-15 16:37 51.51808 9.11355 22181 ft 347 kts
2026-04-15 16:38 51.54200 9.11873 22181 ft 347 kts
2026-04-15 16:38 51.56592 9.12382 22183 ft 347 kts
2026-04-15 16:38 51.58980 9.12894 22181 ft 347 kts
2026-04-15 16:38 51.61373 9.13410 22180 ft 347 kts
2026-04-15 16:39 51.63762 9.13926 22182 ft 347 kts
2026-04-15 16:39 51.66151 9.14443 22180 ft 347 kts
2026-04-15 16:39 51.68541 9.14959 22183 ft 347 kts
2026-04-15 16:39 51.70935 9.15475 22181 ft 347 kts
2026-04-15 16:40 51.73321 9.15991 22187 ft 347 kts
2026-04-15 16:40 51.75710 9.16511 22183 ft 346 kts
2026-04-15 16:40 51.78098 9.17030 22183 ft 346 kts
2026-04-15 16:40 51.80490 9.17550 22181 ft 346 kts
2026-04-15 16:41 51.82877 9.18070 22181 ft 346 kts
2026-04-15 16:41 51.85263 9.18591 22178 ft 346 kts
2026-04-15 16:41 51.87647 9.19111 22182 ft 346 kts
2026-04-15 16:41 51.90038 9.19647 22179 ft 346 kts
2026-04-15 16:42 51.92418 9.20240 22181 ft 347 kts
2026-04-15 16:42 51.94799 9.20868 22175 ft 346 kts
2026-04-15 16:42 51.97175 9.21506 22179 ft 347 kts
2026-04-15 16:42 51.99555 9.22148 22168 ft 347 kts
2026-04-15 16:43 52.01936 9.22787 22184 ft 347 kts
2026-04-15 16:43 52.04314 9.23419 22183 ft 347 kts
2026-04-15 16:43 52.06699 9.24016 22180 ft 346 kts
2026-04-15 16:43 52.09083 9.24499 22182 ft 345 kts
2026-04-15 16:44 52.11473 9.24916 22180 ft 345 kts
2026-04-15 16:44 52.13866 9.25308 22183 ft 345 kts
2026-04-15 16:44 52.16260 9.25702 21958 ft 347 kts
2026-04-15 16:44 52.18662 9.26109 21443 ft 346 kts
2026-04-15 16:45 52.21029 9.26520 20930 ft 339 kts
2026-04-15 16:45 52.23363 9.26926 20428 ft 336 kts
2026-04-15 16:45 52.25679 9.27328 19931 ft 333 kts
2026-04-15 16:45 52.27977 9.27726 19449 ft 331 kts
2026-04-15 16:46 52.30259 9.28121 18968 ft 329 kts
2026-04-15 16:46 52.32501 9.28508 18501 ft 327 kts
2026-04-15 16:46 52.34790 9.28902 17959 ft 325 kts
2026-04-15 16:46 52.37002 9.29174 17430 ft 320 kts 355°
2026-04-15 16:47 52.39204 9.28858 16911 ft 317 kts 351°
2026-04-15 16:47 52.41384 9.28430 16394 ft 314 kts 350°
2026-04-15 16:47 52.43573 9.27990 15879 ft 312 kts 350°
2026-04-15 16:47 52.45690 9.27563 15386 ft 309 kts 350°
2026-04-15 16:48 52.47846 9.27128 14894 ft 307 kts 350°
2026-04-15 16:48 52.49956 9.26700 14408 ft 305 kts 350°
2026-04-15 16:48 52.52029 9.26278 13931 ft 303 kts 350°
2026-04-15 16:48 52.54109 9.25853 13398 ft 300 kts 350°
2026-04-15 16:49 52.56170 9.25425 12875 ft 298 kts 350°
2026-04-15 16:49 52.58219 9.24995 12356 ft 295 kts 350°
2026-04-15 16:49 52.60249 9.24562 11842 ft 293 kts 350°
2026-04-15 16:49 52.62257 9.24127 11352 ft 290 kts 350°
2026-04-15 16:50 52.64258 9.23686 10854 ft 288 kts 350°
2026-04-15 16:50 52.66234 9.23242 10415 ft 286 kts 350°
2026-04-15 16:50 52.68197 9.22797 9976 ft 284 kts 350°
2026-04-15 16:50 52.70149 9.22351 9478 ft 282 kts 350°
2026-04-15 16:51 52.72083 9.21906 9011 ft 279 kts 350°
2026-04-15 16:51 52.73996 9.21470 8545 ft 277 kts 350°
2026-04-15 16:51 52.75893 9.21039 8078 ft 274 kts 350°
2026-04-15 16:51 52.77774 9.20613 7625 ft 272 kts 350°
2026-04-15 16:52 52.79638 9.20189 7168 ft 269 kts 350°
2026-04-15 16:52 52.81486 9.19771 6731 ft 267 kts 350°
2026-04-15 16:52 52.83320 9.19358 6256 ft 265 kts 350°
2026-04-15 16:52 52.85145 9.18943 5794 ft 264 kts 350°
2026-04-15 16:53 52.86956 9.18518 5330 ft 262 kts 350°
2026-04-15 16:53 52.88758 9.18084 4870 ft 261 kts 350°
2026-04-15 16:53 52.90549 9.17646 4394 ft 257 kts 350°
2026-04-15 16:53 52.92288 9.17219 3921 ft 248 kts 350°
2026-04-15 16:54 52.93426 9.16938 3614 ft 241 kts 350°
2026-04-15 16:54 52.95059 9.16534 3156 ft 234 kts 350°
2026-04-15 16:54 52.96618 9.16147 2992 ft 215 kts 350°
2026-04-15 16:54 52.98046 9.15794 3002 ft 204 kts 350°
2026-04-15 16:55 52.99389 9.15467 2997 ft 186 kts 350°
2026-04-15 16:55 53.00641 9.15170 3017 ft 178 kts 351°
2026-04-15 16:55 53.01801 9.14577 3012 ft 174 kts 322°
2026-04-15 16:55 53.02622 9.13139 3015 ft 171 kts 307°
2026-04-15 16:56 53.03326 9.11539 3006 ft 171 kts 304°
2026-04-15 16:56 53.04011 9.09928 2996 ft 171 kts 304°
2026-04-15 16:56 53.04692 9.08310 2985 ft 171 kts 304°
2026-04-15 16:56 53.05202 9.06543 2974 ft 171 kts 282°
2026-04-15 16:57 53.05241 9.04573 2845 ft 171 kts 268°
2026-04-15 16:57 53.05199 9.02606 2643 ft 170 kts 268°
2026-04-15 16:57 53.05159 9.00686 2426 ft 170 kts 268°
2026-04-15 16:57 53.05126 8.99104 2238 ft 169 kts 269°
2026-04-15 16:58 53.05086 8.97178 2009 ft 163 kts 268°
2026-04-15 16:58 53.05047 8.95350 1798 ft 154 kts 268°
2026-04-15 16:58 53.05012 8.93645 1614 ft 140 kts 269°
2026-04-15 16:58 53.04982 8.92080 1379 ft 133 kts 269°
2026-04-15 16:59 53.04942 8.90565 1155 ft 130 kts 270°